Hutchinson, KS

7:29 AM CDT on September 29, 2016 (GMT -0500)
Hutchinson Municipal

Weather History for KHUT - August, 2014

Change the Weather History Date:

Monday, August 25, 2014

  Actual Average Record
Temperature  
Mean Temperature 86 °F -  
Max Temperature 100 °F 88 °F 102 °F (2003)
Min Temperature 73 °F 63 °F 52 °F (2010)
Cooling Degree Days 22    
Growing Degree Days 36 (Base 50)    
Moisture  
Dew Point 63 °F    
Average Humidity 49    
Maximum Humidity 76    
Minimum Humidity 27    
Precipitation  
Precipitation 0.00 in - - ()
Sea Level Pressure  
Sea Level Pressure 29.88 in    
Wind  
Wind Speed 9 mph (SSE)    
Max Wind Speed 16 mph    
Max Gust Speed 26 mph    
Visibility 10 miles    
Events Thunderstorm    
Averages and records for this station are not official NWS values.
T = Trace of Precipitation, MM = Missing Value Source: NWS Daily Summary

Daily Weather History Graph

Daily Weather History Graph

Search for Another Location

Airport or City:

Trip Planner

Search our weather history database for the weather conditions in past years. The results will help you decide how hot, cold, wet, or windy it might be!

Date:

Astronomy

Aug. 25, 2014 Rise Set
Actual Time 6:55 AM CDT 8:11 PM CDT
Civil Twilight 6:27 AM CDT 8:38 PM CDT
Nautical Twilight 5:55 AM CDT 9:11 PM CDT
Astronomical Twilight 5:20 AM CDT 9:45 PM CDT
Moon 7:00 AM CDT (8/25) 8:03 PM CDT (8/25)
Length of Visible Light 14h 10m
Length of Day
13h 15m
New Moon, 0% of the Moon is Illuminated
Aug 25
New Moon
Sep 2
First Quarter
Sep 8
Full
Sep 15
Last Quarter
Sep 24
New

Hourly Weather History & Observations

Time (CDT) Temp. Heat Index Dew Point Humidity Pressure Visibility Wind Dir Wind Speed Gust Speed Precip Events Conditions
12:52 AM 82.0 °F 83.1 °F 63.0 °F 52% 29.85 in 10.0 mi SSE 9.2 mph - N/A   Clear
1:52 AM 82.0 °F 83.4 °F 64.0 °F 54% 29.84 in 10.0 mi South 11.5 mph - N/A   Clear
2:52 AM 81.0 °F 82.2 °F 63.0 °F 54% 29.84 in 10.0 mi South 10.4 mph - N/A   Clear
3:52 AM 79.0 °F - 63.0 °F 58% 29.83 in 10.0 mi South 8.1 mph - N/A   Clear
4:52 AM 75.9 °F - 64.0 °F 67% 29.84 in 10.0 mi South 5.8 mph - N/A   Clear
5:52 AM 73.9 °F - 64.0 °F 71% 29.85 in 10.0 mi South 6.9 mph - N/A   Clear
6:52 AM 73.0 °F - 64.9 °F 76% 29.88 in 10.0 mi SSE 5.8 mph - N/A   Clear
7:52 AM 75.0 °F - 64.9 °F 71% 29.89 in 10.0 mi SE 4.6 mph - N/A   Clear
9:52 AM 86.0 °F 87.6 °F 64.9 °F 49% 29.90 in 10.0 mi South 10.4 mph - N/A   Clear
10:52 AM 88.0 °F 89.6 °F 64.9 °F 46% 29.92 in 10.0 mi SSW 6.9 mph - N/A   Clear
11:52 AM 93.0 °F 95.0 °F 64.9 °F 39% 29.92 in 10.0 mi North 4.6 mph - N/A   Clear
1:52 PM 96.1 °F 99.9 °F 66.9 °F 38% 29.89 in 10.0 mi Variable 4.6 mph - N/A   Clear
2:52 PM 97.0 °F 99.3 °F 64.0 °F 34% 29.88 in 10.0 mi Calm Calm - N/A   Clear
3:52 PM 100.0 °F 103.0 °F 64.0 °F 31% 29.85 in 10.0 mi South 6.9 mph - N/A   Clear
4:52 PM 100.9 °F 102.1 °F 61.0 °F 27% 29.83 in 10.0 mi South 8.1 mph - N/A   Clear
5:52 PM 99.0 °F 99.5 °F 61.0 °F 28% 29.81 in 10.0 mi SE 13.8 mph - N/A   Clear
6:52 PM 96.1 °F 97.3 °F 63.0 °F 33% 29.81 in 10.0 mi SE 12.7 mph - N/A   Clear
7:52 PM 91.0 °F 91.9 °F 63.0 °F 39% 29.85 in 10.0 mi SE 10.4 mph - N/A   Clear
10:52 PM 86.0 °F 86.8 °F 63.0 °F 46% 29.92 in 10.0 mi NW 16.1 mph 26.5 mph N/A   Scattered Clouds
11:27 PM 77.0 °F - 59.0 °F 54% 30.03 in 10.0 mi North 16.1 mph 25.3 mph N/A Thunderstorm Thunderstorm
11:52 PM 75.0 °F - 61.0 °F 62% 29.97 in 10.0 mi NNE 11.5 mph - N/A Thunderstorm Mostly Cloudy